Location: Centerville
(32.8776°N, 96.6203°W)
Time: 23:58:09
(UTC+00:00)

Cosmos 2151 - Pass Details

Date: 17 June 2021
Orbit: 582 x 600 km, 82.5° (Epoch: 01 August)

Event Time Altitude Azimuth Distance (km) Brightness Sun altitude
Exits shadow 09:22:01 29° 284° (WNW) 1,078 4.0 -20.0°
Drops below altitude 10° 09:25:36 10° 342° (NNW) 1,910 5.9 -19.5°
Sets 09:28:02 0° 354° (N) 2,812 7.0 -19.2°
